Home > Weather > Barsinghausen > Past weeks

Flag for Germany Weather for the Past 2 Weeks in Barsinghausen, Lower Saxony, Germany

Now
34 °F

Chilly.


Feels Like: 29 °F
Forecast: 32 / 37 °F
Wind: 6 mph from Southwest

Location: Wunstorf Airport

Current Time: Feb 12, 2016 at 5:10:33 AM

Latest Report: Feb 12, 2016 at 4:20 AM


Visibility: 3 mi

Pressure: 29.62 "Hg

Humidity: 93%

Dew point: 32 °F

Location of BarsinghausenLocation

Historic Weather in Barsinghausen — Graph

°F

Barsinghausen Temperature Yesterday

Maximum temperature yesterday: 43 °F (at 12:20 PM)
Minimum temperature yesterday: 34 °F (at 10:20 PM)
Average temperature yesterday: 39 °F

High & Low Weather Summary for the Past Weeks

 TemperatureHumidityPressure
High54 °F (Feb 1, 11:48 AM)100% (Jan 31, 9:20 PM)30.24 "Hg (Jan 31, 9:20 PM)
Low34 °F (Feb 9, 11:20 PM)58% (Feb 2, 10:20 AM)28.77 "Hg (Feb 9, 8:20 PM)
Average44 °F81%29.75 "Hg
* Reported Jan 28 3:20 AM — Feb 12 3:20 AM, Barsinghausen, Weather by CustomWeather, © 2016

Note: Actual official high and low records may vary slightly from our data, if they occured in-between our weather recording intervals... More about our weather records

Advertising

Barsinghausen Weather History for the Previous 24 Hours

 ConditionsComfort  
Time TempWeatherWind HumidityBarometerVisibility
3:20 AM
Fri, Feb 12
34 °FChilly.8 mph93%29.62 "Hg3 mi
2:20 AM36 °FChilly.8 mph93%29.62 "Hg4 mi
1:20 AM34 °FChilly.8 mph93%29.62 "Hg4 mi
12:20 AM36 °FChilly.6 mph87%29.62 "Hg4 mi
11:20 PM
Thu, Feb 11
36 °FChilly.9 mph87%29.62 "Hg4 mi
10:20 PM34 °FChilly.9 mph93%29.62 "Hg5 mi
9:20 PM36 °FChilly.6 mph93%29.62 "Hg4 mi
8:20 PM37 °FChilly.7 mph93%29.62 "Hg6 mi
7:20 PM36 °FPassing clouds.8 mph93%29.62 "HgN/A
6:47 PM36 °FPartly cloudy.8 mph93%29.62 "HgN/A
6:20 PM36 °FSprinkles. Partly cloudy.17 mph93%29.62 "Hg4 mi
5:20 PM39 °FScattered showers. Scattered clouds.7 mph87%29.62 "HgN/A
4:20 PM39 °FScattered clouds.9 mph81%29.59 "HgN/A
3:20 PM39 °FScattered showers. Partly sunny.15 mph87%29.59 "HgN/A
2:20 PM43 °FScattered clouds.17 mph76%29.59 "HgN/A
1:20 PM41 °FScattered clouds.12 mph81%29.59 "HgN/A
12:47 PM37 °FRain showers. Partly sunny.20 mph81%29.59 "Hg5 mi
12:20 PM43 °FScattered clouds.18 mph76%29.59 "HgN/A
11:20 AM41 °FScattered clouds.15 mph81%29.59 "HgN/A
10:20 AM39 °FScattered clouds.13 mph87%29.56 "HgN/A
9:20 AM37 °FScattered clouds.13 mph87%29.56 "HgN/A
8:20 AM37 °FScattered clouds.9 mph81%29.56 "HgN/A
7:20 AM37 °FPassing clouds.16 mph87%29.53 "HgN/A
6:20 AM37 °FPassing clouds.16 mph87%29.50 "HgN/A
5:20 AM39 °FPassing clouds.16 mph81%29.50 "HgN/A
Weather by CustomWeather, © 2016

See weather overviewHow to use our weather pages